Location: Terra Rouge Observatory
(46.0000°N, 62.7500°W)
Time: 08:12:18
(UTC-03:00)

NOSS 3-1 (A) - Visible Passes

Search period start: 26 March 2017 00:00
Search period end: 05 April 2017 00:00
Orbit: 836 x 1376 km, 63.4° (Epoch: 08 March)

Date Brightness Start Highest point End Pass type
(mag) Time Alt. Az. Time Alt. Az. Time Alt. Az.
26 Mar 5.1 06:05:46 10° S 06:10:54 33° ESE 06:16:33 10° NE visible
27 Mar 5.7 05:22:29 10° SSE 05:26:38 20° ESE 05:31:04 10° ENE visible
28 Mar 6.0 04:40:41 10° ESE 04:42:28 11° ESE 04:44:20 10° E visible
28 Mar 3.8 06:26:07 10° SSW 06:31:56 71° ESE 06:38:29 10° NE visible
29 Mar 4.5 05:41:55 10° S 05:47:24 45° ESE 05:53:31 10° NE visible
30 Mar 5.1 04:58:13 10° SSE 05:03:03 28° ESE 05:08:18 10° NE visible
31 Mar 5.7 04:15:17 10° SE 04:18:49 16° ESE 04:22:32 10° ENE visible
31 Mar 3.5 06:02:42 10° SW 06:08:35 90° NE 06:15:15 10° NE visible
01 Apr 3.9 05:18:37 12° SSW 05:23:58 59° ESE 05:30:23 10° NE visible
02 Apr 4.6 04:35:40 18° S 04:39:29 37° ESE 04:45:20 10° NE visible
03 Apr 5.1 03:52:37 17° SE 03:55:12 23° ESE 03:59:57 10° ENE visible
03 Apr 3.5 05:40:05 14° SW 05:45:18 72° NW 05:52:00 10° NE visible
04 Apr 5.6 03:09:32 12° ESE 03:11:01 13° ESE 03:13:43 10° ENE visible
04 Apr 3.5 04:56:59 25° SSW 05:00:34 78° SE 05:07:11 10° NE visible
